Theta_e
305 304 304 304 304 304 305 306 308 309 311 313 315 317 318 320 319 321 322 323 325 323 323 326 327 329 327 324 326 324 325 325 325 329 331 333 333 332 331 329 335 334 337 338 331 334 335 335 338 336 332 337 341 343
303 304 304 304 304 304 304 305 307 308 311 311 314 315 316 317 319 320 321 322 323 323 323 327 328 329 328 327 324 322 324 323 324 325 326 327 330 327 329 334 328 338 333 336 337 336 330 332 334 335 334 337 338 338
302 303 304 304 303 303 303 304 306 308 311 311 314 315 316 316 317 318 320 321 322 319 323 323 324 327 329 329 329 326 319 321 322 320 322 324 328 324 328 328 330 329 329 337 336 336 336 333 334 334 335 335 334 334
302 303 303 303 303 303 303 305 307 309 311 312 314 316 316 316 316 317 319 321 321 320 326 324 326 327 328 327 329 328 321 320 318 318 321 324 327 323 327 327 328 327 331 332 332 333 333 333 332 332 330 329 329 328
302 302 302 302 302 303 303 304 308 311 312 313 313 314 315 314 314 315 317 319 320 321 323 324 324 323 325 327 326 328 324 319 319 322 323 326 322 325 323 325 327 326 330 332 332 329 331 331 330 329 329 330 331 334
301 301 302 302 302 302 303 303 306 309 311 312 313 312 312 312 313 315 318 322 321 322 321 327 322 324 326 325 322 319 319 318 319 321 322 321 320 324 327 328 325 323 322 323 328 325 326 329 331 329 329 331 334 334
301 301 302 301 302 303 303 303 304 306 309 311 311 312 312 311 311 314 318 320 319 320 321 326 326 324 326 324 318 318 320 320 321 321 323 322 323 322 324 329 326 324 324 325 325 329 332 332 332 329 330 331 335 335
302 302 301 301 301 303 303 303 304 304 305 308 309 310 312 312 311 313 316 317 317 320 320 325 326 325 322 323 323 317 321 320 320 321 320 323 322 321 327 323 322 323 324 324 324 325 326 329 330 328 330 331 334 334
302 302 302 301 302 302 303 303 303 304 305 308 308 309 310 312 313 315 318 317 318 320 327 325 327 328 320 321 320 321 320 326 320 324 323 324 324 329 326 324 325 325 327 326 328 328 325 326 329 329 329 332 333 333
303 302 302 301 302 301 302 302 303 305 307 308 307 310 309 312 315 315 318 322 322 323 323 330 321 328 322 321 324 324 321 324 330 327 321 325 325 322 325 322 320 323 324 325 330 331 326 326 327 328 328 330 332 333
304 303 302 301 302 301 301 302 303 305 306 307 307 310 311 315 315 316 322 324 326 329 327 328 323 326 319 325 325 322 326 325 330 329 329 328 328 326 322 322 323 325 326 325 325 326 326 325 325 326 326 329 331 334
304 304 302 302 302 302 301 302 303 305 307 307 308 310 314 314 315 319 322 323 324 330 329 330 325 322 320 318 322 322 330 327 335 325 330 331 326 320 319 319 321 323 326 329 331 326 326 326 325 324 324 326 331 335
304 304 302 302 302 302 301 302 303 304 307 308 310 314 314 314 316 322 324 323 328 325 326 326 327 323 320 319 323 325 330 334 329 333 333 327 321 318 316 317 319 323 326 327 330 332 330 328 327 324 326 329 330 334
304 303 303 303 302 302 301 302 303 305 306 308 313 313 314 316 314 313 316 322 321 322 326 323 325 327 321 324 325 332 330 329 333 338 334 322 319 317 315 316 317 319 322 325 327 330 331 328 327 328 328 330 332 332
304 304 303 303 302 302 301 301 303 305 306 309 312 313 313 311 311 312 313 314 318 320 322 324 325 327 328 329 330 331 333 333 331 329 325 320 319 317 315 315 316 317 319 321 325 326 328 329 327 327 330 331 333 332
304 304 304 303 302 302 301 302 304 305 305 308 311 314 311 312 313 312 313 314 315 320 322 324 326 328 331 331 333 334 334 334 326 321 317 316 316 314 314 314 315 316 317 319 322 324 325 327 328 327 330 332 333 333
304 304 304 303 302 302 301 303 305 305 307 309 312 307 311 312 312 313 314 315 316 322 324 325 328 328 325 328 330 329 328 325 323 321 319 316 315 314 313 313 314 315 316 317 319 321 323 325 328 326 329 330 331 332
304 304 302 302 302 302 303 304 305 307 308 309 310 309 308 311 310 311 311 315 318 320 320 323 322 325 327 327 329 325 324 322 321 320 320 319 317 316 314 313 314 314 315 316 319 320 322 325 327 327 329 330 329 329
304 303 302 302 302 302 302 303 304 306 308 307 307 306 306 308 308 308 308 312 314 314 318 318 321 323 323 322 323 321 319 318 319 318 317 317 317 317 315 314 315 314 315 316 319 321 322 324 327 329 330 329 329 328
303 302 303 302 302 302 304 304 304 304 307 306 304 306 304 304 304 305 306 310 310 312 316 318 316 315 316 315 316 315 314 313 314 316 315 313 313 314 314 314 314 314 315 316 318 320 321 323 326 330 330 329 329 329
303 303 303 302 302 301 302 304 303 301 303 304 303 303 305 302 304 305 306 305 310 312 315 310 311 310 309 311 312 311 309 310 311 312 314 314 313 312 313 313 313 314 315 317 318 319 321 323 324 326 330 329 330 329
304 303 302 302 302 301 302 302 304 305 305 303 303 304 304 306 306 304 302 306 305 305 308 309 309 309 308 308 308 309 311 311 311 312 312 312 311 311 311 312 312 313 315 316 317 319 320 321 322 324 328 330 330 330
302 302 302 302 303 301 302 303 305 304 307 306 305 306 308 306 305 302 306 304 304 303 305 306 307 309 308 309 309 310 310 310 309 309 310 311 311 312 313 313 313 313 314 316 316 318 319 321 322 323 325 329 331 330
302 303 303 301 303 303 301 306 305 307 307 308 308 310 308 306 304 305 308 305 304 302 302 304 306 306 305 306 306 307 310 309 309 310 311 311 310 311 312 313 314 314 315 316 316 318 320 322 322 324 326 328 329 329
302 303 302 302 304 305 306 307 307 308 309 307 308 307 306 305 308 307 309 306 303 303 303 304 303 303 305 305 305 306 309 309 308 307 311 310 312 312 313 314 314 315 315 316 317 319 322 323 323 324 325 326 327 327
302 303 302 305 305 304 306 308 306 307 307 307 306 304 302 306 309 308 306 306 308 308 308 308 309 309 308 305 306 307 311 312 310 308 311 312 312 313 313 313 313 314 316 316 317 319 322 323 322 324 323 321 322 323
305 305 303 300 306 306 308 308 307 308 308 308 307 307 307 311 310 308 305 305 308 309 311 311 310 308 308 309 311 312 312 312 312 313 314 314 314 313 313 314 314 315 317 317 318 320 322 321 321 321 323 321 320 321
305 306 307 306 305 305 308 307 309 309 308 306 307 310 311 310 310 307 306 310 311 311 310 311 311 310 310 310 310 311 311 313 313 313 313 313 313 315 316 316 316 317 316 317 319 321 320 319 319 319 320 321 321 321
302 301 303 305 304 304 305 306 307 306 307 308 310 310 309 307 306 306 308 309 311 311 310 310 310 310 310 310 310 310 311 312 312 312 313 313 312 314 315 316 316 316 317 317 318 320 320 317 318 316 312 316 319 321
301 299 303 304 306 307 306 303 305 304 305 305 305 305 305 304 308 309 308 308 308 308 309 310 310 309 309 308 311 313 313 313 313 311 311 312 313 315 315 315 316 316 316 318 319 320 319 317 318 316 316 315 314 314
299 301 303 303 305 304 304 303 302 302 303 303 305 306 306 305 306 310 312 312 312 309 308 308 310 312 312 311 310 310 311 314 314 314 314 314 314 314 314 314 316 316 316 318 318 319 318 317 318 317 317 316 316 316
299 301 302 303 303 302 302 303 304 304 304 304 304 304 306 306 306 306 312 312 311 310 311 311 310 310 310 310 311 311 311 312 312 313 313 313 313 313 313 314 315 316 317 318 317 315 314 315 315 315 316 316 316 316
301 301 302 303 304 305 305 307 309 310 310 310 310 308 309 310 312 309 311 311 311 311 312 311 311 311 311 311 311 311 311 311 311 313 313 313 313 313 313 313 313 313 316 316 316 315 316 316 317 316 316 316 316 316
Wind_Speed
18 17 17 16 16 16 16 15 15 16 17 16 14 13 13 11 9 9 4 5 3 1 5 5 3 3 2 1 2 4 3 3 4 4 2 1 1 1 2 1 1 3 4 2 2 3 3 2 3 4 5 1 3 5
17 18 17 18 17 17 17 17 13 15 18 16 13 12 11 11 8 6 3 3 8 4 5 6 14 21 16 17 4 1 4 3 4 4 0 1 1 2 2 0 3 2 4 3 6 5 4 4 4 1 3 4 3 6
17 18 17 17 17 17 19 16 13 13 16 14 11 10 9 10 9 5 6 5 2 2 5 3 6 4 8 22 20 4 2 3 2 3 3 2 1 3 1 2 1 3 3 2 3 3 4 4 1 0 1 4 4 5
16 16 17 17 17 17 18 15 11 11 12 10 9 9 9 8 8 7 5 3 2 1 2 6 7 8 6 6 17 24 4 4 5 2 2 2 1 3 3 2 2 4 3 3 2 4 3 3 3 3 2 5 4 3
17 17 17 17 17 17 16 15 11 10 9 6 7 8 7 7 7 9 12 8 9 2 2 5 18 10 4 7 14 20 10 3 2 2 2 3 2 2 1 1 3 4 6 4 5 5 4 7 4 6 7 6 6 6
18 17 17 17 17 16 15 15 13 11 8 9 7 7 6 7 7 4 2 2 10 8 0 3 5 4 3 4 8 8 9 3 3 4 3 2 3 3 3 3 6 4 4 5 4 5 6 5 3 4 6 7 5 6
18 17 16 16 16 16 15 14 13 10 9 8 8 7 7 6 7 5 2 4 5 4 2 4 5 4 3 1 2 3 2 2 3 3 2 2 1 3 2 4 6 7 8 7 5 3 3 5 6 9 6 8 7 6
17 17 16 16 15 15 13 13 12 12 11 10 9 10 10 9 11 9 10 11 9 4 2 2 4 4 3 1 2 1 3 2 1 3 2 2 1 2 3 8 7 7 5 6 9 8 8 3 4 6 7 8 7 7
18 16 16 15 14 13 11 11 11 11 11 9 9 12 8 4 3 2 5 3 8 6 2 3 3 3 4 1 0 2 1 2 1 3 3 4 1 4 7 6 6 3 3 5 6 4 5 6 7 7 7 7 7 7
19 17 15 14 13 10 10 10 9 7 5 4 5 2 3 3 5 4 3 3 4 4 3 3 2 3 2 1 1 2 1 3 4 5 4 3 4 1 7 7 6 7 7 8 3 2 3 4 6 6 9 8 10 12
18 17 15 14 13 11 11 9 7 4 3 2 2 2 4 5 2 1 3 3 3 4 5 4 5 3 2 2 1 1 2 2 3 5 6 4 3 3 8 9 7 7 7 6 8 8 6 5 6 7 6 8 11 14
16 15 15 14 13 12 10 8 6 7 3 3 5 6 3 2 1 2 3 2 3 3 3 5 7 5 1 2 2 1 2 1 5 3 4 4 1 4 7 9 9 7 8 10 12 8 10 10 14 10 8 10 18 25
15 14 13 13 12 11 10 8 7 9 6 5 4 3 2 2 2 5 6 3 2 3 4 4 3 3 1 2 1 1 3 4 3 3 3 2 2 5 6 7 8 10 9 9 9 13 11 12 14 15 12 17 22 23
14 14 12 11 11 12 9 8 7 6 4 2 3 4 4 4 4 4 4 1 2 1 3 3 2 3 2 4 4 4 4 1 3 4 3 2 2 5 6 5 6 10 10 9 8 9 9 10 10 15 20 19 22 20
14 14 13 14 12 12 10 9 9 6 4 3 3 4 6 4 2 3 3 2 2 1 3 2 2 2 2 3 4 3 3 4 2 3 2 1 3 5 6 6 7 8 10 10 14 13 14 16 14 14 19 21 26 23
11 10 13 14 12 12 9 8 8 5 2 3 4 3 2 1 2 2 3 4 2 2 2 1 2 0 3 1 3 6 5 3 2 2 3 2 2 4 5 6 6 10 11 12 13 16 19 17 15 16 19 22 26 30
11 5 9 12 12 12 10 8 5 3 2 4 2 1 2 3 3 3 2 2 1 4 3 3 4 3 0 2 2 2 3 4 3 2 2 3 3 5 6 8 11 14 14 16 17 16 18 21 23 12 9 23 27 32
6 11 9 14 17 12 5 3 2 3 4 3 2 2 1 2 3 2 3 3 2 3 3 2 3 3 3 2 1 3 2 3 3 4 4 4 4 7 8 8 15 15 15 15 17 19 19 20 17 12 16 20 21 25
13 13 14 19 18 5 3 2 2 2 2 3 2 2 2 2 3 5 3 4 2 1 3 1 2 2 3 2 2 3 2 3 3 3 3 7 12 10 10 9 14 16 16 16 15 15 18 22 22 21 17 19 19 20
13 12 16 20 11 2 3 2 2 2 2 2 2 2 2 3 3 2 1 2 1 2 1 1 2 2 3 3 3 3 3 3 2 2 3 4 6 7 9 8 11 14 14 15 15 15 16 20 20 20 14 20 16 19
12 13 18 15 2 5 2 1 1 2 2 2 2 1 3 0 2 2 2 2 2 2 2 3 3 4 4 2 4 3 5 7 4 4 5 5 7 9 13 17 15 13 11 9 10 13 13 14 20 24 21 20 26 21
8 8 6 3 2 2 2 3 2 3 1 2 3 1 2 2 2 3 1 2 3 4 5 4 5 3 3 4 9 14 19 13 15 13 17 14 4 4 5 14 10 7 10 13 12 13 16 17 20 22 23 21 22 24
9 8 3 2 2 1 3 1 1 2 2 2 2 2 3 2 3 1 2 3 4 4 7 7 9 17 10 17 13 15 16 14 8 12 15 14 16 19 17 17 16 11 9 15 17 17 17 21 22 23 22 22 21 22
7 3 2 3 3 3 1 2 3 2 2 2 2 3 2 3 1 1 3 3 3 2 3 5 6 2 1 4 3 6 19 15 14 16 20 13 6 13 14 18 19 20 20 19 18 17 18 17 20 20 19 19 19 19
2 2 2 2 2 2 4 3 2 2 3 5 2 3 3 1 2 2 3 3 2 2 2 2 3 4 4 3 3 11 13 11 10 5 19 13 15 15 16 17 18 21 18 16 14 13 14 16 15 15 15 14 19 19
2 4 5 5 3 3 4 3 4 5 3 3 5 3 1 1 1 4 3 2 2 2 2 1 1 1 2 4 3 2 4 6 4 6 16 13 15 13 6 5 5 14 11 13 17 12 15 10 11 13 10 6 13 17
2 4 3 3 2 2 2 2 3 3 3 4 2 1 1 2 3 3 2 2 3 4 3 3 3 4 4 6 9 10 10 13 14 15 13 13 17 17 18 13 9 14 8 7 11 11 7 6 10 10 9 8 8 14
3 3 5 4 3 3 4 4 4 4 3 2 1 2 2 3 3 3 4 3 6 5 5 6 7 9 12 14 15 16 16 12 10 9 11 13 14 10 10 14 17 17 15 11 8 8 2 5 10 14 6 2 7 13
3 3 2 4 4 4 4 4 3 3 3 3 3 2 3 3 3 3 4 5 6 6 7 9 9 8 11 13 11 9 9 8 4 3 3 3 3 5 14 16 11 12 13 13 11 13 5 1 8 11 8 1 6 9
4 4 3 2 3 3 4 5 3 3 2 3 2 2 2 3 9 12 11 10 9 11 13 10 9 7 7 3 5 5 2 3 5 4 3 4 5 12 16 17 17 8 9 12 10 13 6 1 10 11 18 16 12 3
2 2 2 2 3 4 4 3 3 2 2 3 3 4 4 3 5 3 3 6 9 8 7 6 5 5 2 1 3 4 4 2 4 6 6 9 10 11 11 12 17 9 7 11 6 8 8 2 5 10 15 14 15 14
2 4 3 2 3 4 1 1 2 2 2 1 2 1 3 2 3 2 5 7 4 2 2 4 1 2 1 4 2 4 7 11 13 14 12 13 10 9 8 9 10 5 6 12 9 10 7 2 6 5 7 10 9 9
1 1 2 1 2 3 2 2 2 3 2 2 2 2 1 1 2 2 2 2 4 5 6 4 3 2 6 11 11 9 8 10 12 11 9 8 6 6 8 10 8 4 7 12 12 3 3 9 11 8 8 10 14 18
Wind_Direction
300 302 307 314 318 315 310 308 295 304 308 308 307 308 311 310 324 341 309 33 29 231 275 207 241 180 25 83 127 279 29 348 24 56 100 229 88 321 33 305 110 144 120 161 91 79 266 347 11 150 215 37 143 120
298 297 299 304 312 318 310 308 295 303 305 301 300 298 303 311 305 314 282 313 322 196 251 268 258 261 257 223 139 309 186 213 199 87 86 111 47 37 156 58 342 64 171 185 169 214 243 263 251 317 157 127 107 119
296 296 295 298 304 309 317 302 292 296 301 295 291 290 291 304 309 280 278 315 318 351 294 344 251 210 271 230 216 149 270 189 166 174 152 153 89 123 114 262 329 337 150 120 72 283 314 360 34 30 117 106 128 128
296 294 292 295 298 304 313 305 294 294 303 287 279 275 278 292 299 285 262 227 293 120 264 281 323 287 265 273 213 212 147 106 95 77 102 124 162 167 207 215 179 208 136 154 276 271 297 293 254 211 135 124 114 112
292 292 290 292 296 296 303 304 291 299 298 284 263 266 280 290 297 286 275 255 229 198 243 282 314 298 258 220 207 209 194 112 121 81 99 219 173 119 11 54 257 189 181 153 215 216 167 239 230 172 167 185 171 151
290 289 287 290 293 292 292 296 290 279 300 296 288 284 283 293 300 292 312 259 194 190 138 311 298 289 325 163 157 171 152 125 124 144 200 233 258 116 148 214 260 235 218 184 186 192 214 253 258 187 188 187 175 164
288 286 285 285 289 291 288 292 288 282 283 293 294 289 289 297 292 225 218 136 149 187 174 293 290 281 292 219 100 105 116 137 126 139 186 166 235 107 125 213 253 236 225 224 228 154 282 186 221 193 186 189 150 134
281 282 281 282 283 288 284 286 283 285 288 285 294 305 293 287 281 273 255 235 235 221 180 240 264 332 13 239 171 20 116 78 4 148 82 156 42 68 253 244 262 271 293 293 256 220 231 291 189 159 156 142 146 160
273 275 273 276 280 284 282 284 281 275 284 273 295 306 291 228 223 193 162 239 225 230 235 178 199 226 3 8 227 51 91 123 350 152 214 119 168 217 230 243 264 267 218 282 328 243 218 232 226 180 165 171 165 181
267 263 265 267 267 274 274 287 282 286 273 273 323 298 282 220 295 286 151 178 194 201 217 236 138 255 85 14 28 102 12 153 160 229 115 155 240 47 19 334 321 331 318 313 284 246 176 232 215 192 202 191 184 183
265 258 257 257 255 258 272 280 276 265 219 219 231 238 296 309 293 212 218 213 179 208 182 203 176 194 251 95 211 181 183 160 160 222 156 192 255 330 333 328 323 327 331 305 260 270 266 231 223 195 208 207 193 182
257 253 251 249 251 247 256 260 251 215 209 217 280 285 282 261 195 207 228 219 220 235 172 186 197 182 272 96 77 276 206 92 228 135 136 187 149 282 314 322 327 320 329 333 327 267 263 243 253 217 200 196 199 202
250 244 244 244 240 234 245 247 239 232 221 279 240 220 169 195 216 208 187 231 204 184 197 187 170 156 60 67 151 172 218 228 107 154 187 99 256 308 306 309 325 332 342 343 322 325 309 270 256 226 217 215 207 195
241 229 237 232 231 228 238 237 221 212 184 235 213 200 209 198 237 203 206 278 288 152 168 140 145 150 154 134 196 197 223 210 231 196 126 192 254 289 302 302 328 334 344 337 334 334 352 321 275 241 235 221 195 186
235 230 223 225 223 211 222 228 203 174 183 240 225 216 221 256 280 264 261 279 261 201 130 133 84 142 154 196 190 177 166 209 29 102 128 107 298 302 304 320 330 336 337 337 336 339 344 342 306 259 231 222 201 188
230 218 222 212 210 194 211 206 182 182 237 237 235 269 198 248 274 228 227 250 211 193 118 52 119 206 217 219 203 199 194 98 115 168 205 208 245 287 283 290 313 320 328 326 328 330 335 322 309 274 249 212 194 188
208 195 179 188 194 181 194 195 183 185 237 257 237 268 250 266 243 267 303 274 188 138 232 157 162 201 18 89 216 45 85 134 142 273 252 224 240 287 308 314 321 328 327 332 330 326 309 306 323 259 202 207 198 192
184 181 183 185 171 165 183 235 232 225 241 254 285 305 197 242 285 276 314 319 269 186 151 179 151 169 157 176 133 119 152 191 202 222 239 257 246 263 283 286 309 317 314 320 327 318 309 306 307 263 247 203 195 191
183 178 179 178 162 150 150 224 225 273 248 259 241 234 250 237 293 283 274 346 354 261 138 55 125 157 167 120 86 153 164 190 219 234 241 250 260 256 258 271 294 304 304 304 314 314 308 297 290 289 255 197 193 197
166 171 176 161 165 114 170 238 210 225 281 296 305 265 231 247 296 272 214 297 46 28 58 145 234 244 176 157 175 176 195 202 178 299 282 279 275 263 259 245 254 292 293 302 309 318 316 311 312 322 266 215 199 191
132 158 164 154 97 46 326 316 257 226 284 272 280 271 271 272 259 257 277 160 111 210 255 220 226 229 219 216 215 244 241 179 210 200 240 274 276 256 280 287 287 286 289 294 296 304 310 302 306 312 306 245 216 213
127 129 103 104 95 156 266 248 268 299 265 253 298 223 266 251 229 226 179 95 207 225 191 200 231 224 233 243 242 233 255 258 257 259 263 260 273 265 255 269 263 265 271 272 270 276 293 297 303 304 301 287 243 220
98 89 87 111 141 137 271 259 271 247 246 265 318 266 244 238 235 114 221 211 241 231 211 199 217 231 231 253 258 263 262 244 237 242 256 252 251 263 264 271 267 245 254 266 276 277 292 299 300 301 290 283 249 215
82 95 172 175 199 189 231 244 222 245 353 299 254 262 237 221 155 152 238 244 244 300 197 219 199 218 338 267 245 248 260 251 245 261 268 254 253 269 271 277 284 280 269 275 277 276 284 287 303 298 275 260 240 212
97 168 147 221 211 216 216 197 215 231 237 217 264 280 257 127 198 236 234 272 295 278 267 233 204 205 213 248 278 273 287 262 224 231 273 258 257 279 286 285 285 287 290 272 262 270 284 299 305 282 269 246 225 211
213 181 186 202 180 203 220 213 207 215 216 223 232 255 32 142 246 251 241 243 246 247 246 222 231 341 285 219 257 276 308 338 275 231 269 264 258 240 252 267 287 294 300 268 252 256 276 297 309 269 241 220 210 184
243 201 200 250 259 245 260 274 230 215 208 219 238 262 184 241 245 257 279 233 229 243 247 255 233 215 240 283 300 302 309 310 279 264 285 285 285 277 267 251 256 273 286 261 240 248 275 337 337 312 236 168 180 145
246 243 205 188 209 217 226 204 212 220 221 213 113 224 229 217 247 241 223 265 262 284 293 290 281 282 286 293 298 298 296 310 322 291 293 299 293 291 300 287 277 273 266 244 240 217 240 3 351 327 331 189 157 146
244 241 193 221 225 223 221 220 237 241 190 150 164 233 246 231 228 226 267 286 288 266 277 289 295 308 307 306 295 298 284 293 326 338 343 309 321 338 5 358 331 270 253 235 232 211 200 339 343 10 6 131 216 209
254 175 207 218 194 234 242 181 227 237 209 193 193 327 305 271 265 288 283 276 243 241 255 263 274 290 289 305 318 330 331 278 280 247 229 264 274 312 321 331 346 320 237 211 228 196 199 31 7 10 42 35 40 176
240 189 224 217 239 248 235 232 247 229 211 222 204 196 240 274 299 256 313 317 296 270 231 222 204 183 174 14 344 326 313 308 347 320 302 307 326 339 327 328 355 1 196 188 189 180 160 214 332 336 20 357 346 358
195 207 189 238 267 282 315 225 266 250 300 301 300 261 317 351 275 294 11 11 24 14 307 227 187 314 357 46 342 313 312 316 323 324 313 309 338 353 344 351 24 50 178 179 148 112 107 314 304 350 357 336 350 328
244 206 217 281 310 302 320 354 10 345 13 4 329 321 288 263 279 284 345 31 34 341 304 273 161 109 1 339 336 338 325 327 331 325 320 311 326 347 356 8 18 46 118 122 125 89 306 266 239 211 203 219 241 246